Change the Weather History Date:

Thursday, November 28, 2013

  Actual Average Record
Temperature  
Mean Temperature 21 °F 31 °F  
Max Temperature 28 °F 37 °F 55 °F (1949)
Min Temperature 14 °F 24 °F 1 °F (1970)
Degree Days  
Heating Degree Days 44 34  
Month to date heating degree days 869 803  
Since 1 July heating degree days 1529 1463  
Cooling Degree Days 0 0  
Month to date cooling degree days 0 0  
Year to date cooling degree days 814 665  
Moisture  
Dew Point 22 °F    
Average Humidity 88    
Maximum Humidity 92    
Minimum Humidity 84    
Precipitation  
Precipitation 0.00 in 0.06 in 0.93 in (1994)
Month to date precipitation 0.99 1.68  
Year to date precipitation 9.89 12.38  
Sea Level Pressure  
Sea Level Pressure 30.24 in    
Wind  
Wind Speed 1 mph (SSW)    
Max Wind Speed 7 mph    
Max Gust Speed 8 mph    
Visibility 4 miles    
Events Fog    
T = Trace of Precipitation, MM = Missing Value Source: NWS Daily Summary

Daily Weather History Graph

Daily Weather History Graph

Search for Another Location

Airport or City:

Trip Planner

Search our weather history database for the weather conditions in past years. The results will help you decide how hot, cold, wet, or windy it might be!

Date:

Astronomy

Nov. 28, 2013 Rise Set
Actual Time 7:25 AM PST 4:06 PM PST
Civil Twilight 6:49 AM PST 4:42 PM PST
Nautical Twilight 6:10 AM PST 5:21 PM PST
Astronomical Twilight 5:32 AM PST 5:59 PM PST
Moon 2:12 AM PST (11/28) 1:37 PM PST (11/28)
Length of Visible Light 9h 53m
Length of Day
8h 41m
Waning Crescent, 21% of the Moon is Illuminated
Nov 28
Waning Crescent
Dec 2
New
Dec 9
First Quarter
Dec 17
Full
Dec 25
Last Quarter

Hourly Weather History & Observations

Time (PST) Temp. Windchill Dew Point Humidity Pressure Visibility Wind Dir Wind Speed Gust Speed Precip Events Conditions
12:53 AM 16.0 °F - 14.0 °F 92% 30.24 in 10.0 mi Calm Calm - N/A   Clear
1:53 AM 19.0 °F 13.9 °F 16.0 °F 88% 30.23 in 10.0 mi NNW 3.5 mph - N/A   Clear
2:53 AM 17.1 °F 11.7 °F 14.0 °F 88% 30.24 in 10.0 mi NW 3.5 mph - N/A   Clear
3:53 AM 16.0 °F - 14.0 °F 92% 30.24 in 10.0 mi Calm Calm - N/A   Clear
4:48 AM 17.6 °F - 14.0 °F 86% 30.18 in 10.0 mi Calm Calm - N/A   Scattered Clouds
4:53 AM 16.0 °F - 14.0 °F 92% 30.25 in 10.0 mi Calm Calm - N/A   Scattered Clouds
5:00 AM 15.8 °F - 12.2 °F 86% 30.18 in 10.0 mi Calm Calm - N/A   Mostly Cloudy
5:53 AM 19.0 °F - 17.1 °F 92% 30.26 in 10.0 mi Calm Calm - N/A   Overcast
6:53 AM 21.9 °F - 19.0 °F 89% 30.26 in 10.0 mi Calm Calm - N/A   Overcast
7:53 AM 24.1 °F - 21.0 °F 88% 30.27 in 9.0 mi Calm Calm - N/A   Overcast
8:53 AM 25.0 °F - 23.0 °F 92% 30.27 in 6.0 mi Calm Calm - N/A   Overcast
9:53 AM 27.0 °F - 24.1 °F 89% 30.28 in 6.0 mi Calm Calm - N/A   Overcast
10:53 AM 27.0 °F 23.0 °F 24.1 °F 89% 30.28 in 5.0 mi SE 3.5 mph - N/A   Overcast
11:16 AM 26.6 °F 19.1 °F 24.8 °F 93% 30.20 in 2.5 mi South 6.9 mph - N/A   Overcast
11:21 AM 26.6 °F 20.0 °F 24.8 °F 93% 30.20 in 1.0 mi South 5.8 mph - N/A   Overcast
11:29 AM 26.6 °F 21.2 °F 24.8 °F 93% 30.21 in 0.5 mi SSW 4.6 mph - N/A Fog Light Freezing Fog
11:53 AM 26.1 °F - 25.0 °F 96% 30.27 in 0.8 mi Calm Calm - N/A   Overcast
12:00 PM 26.6 °F - 24.8 °F 93% 30.21 in 1.0 mi Calm Calm - N/A   Overcast
12:10 PM 26.6 °F 21.2 °F 24.8 °F 93% 30.20 in 1.8 mi South 4.6 mph - N/A   Overcast
12:20 PM 26.6 °F 20.0 °F 24.8 °F 93% 30.19 in 0.8 mi South 5.8 mph - N/A   Overcast
12:40 PM 26.6 °F - 24.8 °F 93% 30.19 in 1.2 mi Calm Calm - N/A   Overcast
12:53 PM 27.0 °F 23.0 °F 25.0 °F 92% 30.26 in 2.0 mi WSW 3.5 mph - N/A   Overcast
1:21 PM 26.6 °F - 24.8 °F 93% 30.19 in 4.0 mi Calm Calm - N/A   Overcast
1:53 PM 27.0 °F - 24.1 °F 89% 30.25 in 6.0 mi Calm Calm - N/A   Overcast
2:53 PM 27.0 °F - 24.1 °F 89% 30.26 in 5.0 mi Calm Calm - N/A   Mostly Cloudy
3:53 PM 28.0 °F - 25.0 °F 88% 30.27 in 5.0 mi Calm Calm - N/A   Overcast
4:53 PM 27.0 °F - 24.1 °F 89% 30.27 in 5.0 mi Calm Calm - N/A   Overcast
5:41 PM 26.6 °F - 24.8 °F 93% 30.20 in 1.8 mi Calm Calm - N/A   Overcast
5:45 PM 26.6 °F - 24.8 °F 93% 30.20 in 0.8 mi Calm Calm - N/A   Overcast
5:53 PM 26.1 °F - 25.0 °F 96% 30.26 in 0.5 mi Calm Calm - N/A Fog Light Freezing Fog
6:45 PM 26.6 °F 22.6 °F 24.8 °F 93% 30.20 in 0.2 mi SSW 3.5 mph - N/A Fog Light Freezing Fog
6:53 PM 26.1 °F 20.5 °F 24.1 °F 92% 30.26 in 0.5 mi SSW 4.6 mph - N/A Fog Light Freezing Fog
7:00 PM 26.6 °F 22.6 °F 24.8 °F 93% 30.20 in 0.2 mi South 3.5 mph - N/A Fog Light Freezing Fog
7:34 PM 26.6 °F - 24.8 °F 93% 30.21 in 0.2 mi Calm Calm - N/A Fog Light Freezing Fog
7:53 PM 26.1 °F 21.9 °F 25.0 °F 96% 30.27 in 0.2 mi South 3.5 mph - N/A Fog Light Freezing Fog
8:53 PM 26.1 °F 20.5 °F 23.0 °F 88% 30.27 in 0.2 mi South 4.6 mph - N/A Fog Light Freezing Fog
9:53 PM 26.1 °F - 24.1 °F 92% 30.28 in 0.2 mi Calm Calm - N/A Fog Light Freezing Fog
10:53 PM 27.0 °F - 24.1 °F 89% 30.29 in 0.2 mi Calm Calm - N/A Fog Light Freezing Fog
11:53 PM 27.0 °F - 24.1 °F 89% 30.29 in 0.2 mi Calm Calm - N/A Fog Light Freezing Fog